College Park, MD

1:22 AM EDT on August 20, 2017 (GMT -0400)
College Park

Weather History for KCGS - December, 2012

Change the Weather History Date:

Saturday, December 1, 2012

  Actual Average Record
Temperature  
Mean Temperature 42 °F -  
Max Temperature 52 °F 49 °F 75 °F (2006)
Min Temperature 32 °F 31 °F 12 °F (1976)
Degree Days  
Heating Degree Days 23    
Moisture  
Dew Point 39 °F    
Average Humidity 93    
Maximum Humidity 100    
Minimum Humidity 72    
Precipitation  
Precipitation 0.00 in - - ()
Sea Level Pressure  
Sea Level Pressure 30.40 in    
Wind  
Wind Speed 1 mph (NNE)    
Max Wind Speed 7 mph    
Max Gust Speed -    
Visibility 5 miles    
Events      
Averages and records for this station are not official NWS values.
T = Trace of Precipitation, MM = Missing Value Source: NWS Daily Summary

Daily Weather History Graph

Daily Weather History Graph

Search for Another Location

Airport or City:

Trip Planner

Search our weather history database for the weather conditions in past years. The results will help you decide how hot, cold, wet, or windy it might be!

Date:

Astronomy

Dec. 01, 2012 Rise Set
Actual Time 7:07 AM EST 4:45 PM EST
Civil Twilight 6:38 AM EST 5:15 PM EST
Nautical Twilight 6:05 AM EST 5:48 PM EST
Astronomical Twilight 5:33 AM EST 6:20 PM EST
Moon 7:33 PM EST (12/1) 9:19 AM EST (12/1)
Length of Visible Light 10h 36m
Length of Day
9h 37m
Waning Gibbous, 92% of the Moon is Illuminated
Dec 1
Waning Gibbous
Dec 6
Last Quarter
Dec 13
New
Dec 20
First Quarter
Dec 28
Full

Hourly Weather History & Observations

Time (EST) Temp. Windchill Dew Point Humidity Pressure Visibility Wind Dir Wind Speed Gust Speed Precip Events Conditions
12:00 AM 34.7 °F - 33.4 °F 95% 30.36 in 10.0 mi Calm Calm - N/A   Clear
12:20 AM 34.9 °F - 33.4 °F 94% 30.36 in 10.0 mi Calm Calm - N/A   Clear
12:40 AM 34.0 °F - 32.9 °F 96% 30.37 in 10.0 mi Calm Calm - N/A   Clear
1:05 AM 33.8 °F - 32.9 °F 96% 30.37 in 10.0 mi Calm Calm - N/A   Clear
1:25 AM 33.8 °F - 33.1 °F 97% 30.36 in 10.0 mi Calm Calm - N/A   Clear
1:45 AM 34.9 °F - 33.4 °F 94% 30.36 in 10.0 mi Calm Calm - N/A   Clear
2:05 AM 34.3 °F - 33.6 °F 97% 30.36 in 7.0 mi Calm Calm - N/A   Clear
2:30 AM 35.8 °F - 34.9 °F 97% 30.36 in 7.0 mi Calm Calm - N/A   Scattered Clouds
2:50 AM 36.5 °F 33.9 °F 34.9 °F 94% 30.37 in 10.0 mi NW 3.5 mph - N/A   Mostly Cloudy
3:10 AM 36.5 °F - 35.1 °F 95% 30.37 in 7.0 mi Calm Calm - N/A   Mostly Cloudy
3:30 AM 36.1 °F - 35.1 °F 96% 30.36 in 10.0 mi Calm Calm - N/A   Clear
3:55 AM 34.2 °F - 33.6 °F 98% 30.35 in 7.0 mi Calm Calm - N/A   Clear
4:15 AM 34.0 °F - 33.8 °F 99% 30.35 in 7.0 mi Calm Calm - N/A   Clear
4:35 AM 33.4 °F - 33.4 °F 100% 30.37 in 5.0 mi Calm Calm - N/A   Clear
4:55 AM 33.1 °F - 33.1 °F 100% 30.38 in 7.0 mi Calm Calm - N/A   Clear
5:20 AM 32.5 °F - 32.5 °F 100% 30.38 in 5.0 mi Calm Calm - N/A   Clear
5:40 AM 32.9 °F - 32.9 °F 100% 30.38 in 5.0 mi Calm Calm - N/A   Clear
6:00 AM 32.0 °F - 32.0 °F 100% 30.39 in 5.0 mi Calm Calm - N/A   Clear
6:20 AM 32.2 °F - 32.2 °F 100% 30.40 in 4.0 mi Calm Calm - N/A   Clear
6:45 AM 32.0 °F - 32.0 °F 100% 30.40 in 4.0 mi Calm Calm - N/A   Clear
7:05 AM 32.0 °F - 32.0 °F 100% 30.41 in 3.0 mi Calm Calm - N/A   Clear
7:25 AM 32.0 °F - 32.0 °F 100% 30.42 in 4.0 mi Calm Calm - N/A   Scattered Clouds
8:30 AM 39.6 °F 36.3 °F 39.6 °F 100% 30.44 in 2.0 mi North 4.6 mph - N/A   Overcast
8:50 AM 41.0 °F 38.0 °F 41.0 °F 100% 30.44 in 1.5 mi ENE 4.6 mph - N/A   Overcast
9:10 AM 41.5 °F 37.8 °F 41.5 °F 100% 30.45 in 2.0 mi NE 5.8 mph - N/A   Overcast
9:35 AM 42.1 °F - 41.7 °F 99% 30.44 in 2.5 mi Calm Calm - N/A   Overcast
9:55 AM 42.8 °F 38.6 °F 41.9 °F 97% 30.46 in 2.5 mi North 6.9 mph - N/A   Overcast
10:15 AM 43.3 °F 39.9 °F 42.3 °F 96% 30.46 in 3.0 mi North 5.8 mph - N/A   Overcast
10:35 AM 43.9 °F 42.3 °F 42.4 °F 95% 30.46 in 3.0 mi NE 3.5 mph - N/A   Overcast
11:00 AM 44.6 °F 42.2 °F 42.4 °F 92% 30.45 in 4.0 mi NNE 4.6 mph - N/A   Overcast
11:20 AM 45.0 °F - 42.6 °F 91% 30.44 in 4.0 mi Calm Calm - N/A   Overcast
11:40 AM 45.9 °F - 43.0 °F 90% 30.42 in 4.0 mi Calm Calm - N/A   Overcast
12:00 PM 46.6 °F - 42.8 °F 87% 30.43 in 5.0 mi NNE 5.8 mph - N/A   Overcast
12:25 PM 47.3 °F - 43.0 °F 85% 30.43 in 5.0 mi North 4.6 mph - N/A   Overcast
12:45 PM 47.5 °F - 43.2 °F 85% 30.42 in 4.0 mi NE 4.6 mph - N/A   Overcast
1:05 PM 48.2 °F - 43.3 °F 83% 30.40 in 5.0 mi Calm Calm - N/A   Mostly Cloudy
1:25 PM 49.3 °F - 43.3 °F 80% 30.39 in 5.0 mi Calm Calm - N/A   Scattered Clouds
2:10 PM 51.1 °F - 43.9 °F 76% 30.38 in 5.0 mi Calm Calm - N/A   Clear
2:30 PM 51.8 °F - 43.7 °F 74% 30.38 in 5.0 mi Calm Calm - N/A   Clear
2:50 PM 51.8 °F - 43.7 °F 74% 30.38 in 5.0 mi Calm Calm - N/A   Clear
3:15 PM 52.2 °F - 43.5 °F 72% 30.38 in 7.0 mi Calm Calm - N/A   Clear
3:35 PM 52.0 °F - 43.7 °F 73% 30.38 in 7.0 mi Calm Calm - N/A   Clear
3:55 PM 51.8 °F - 43.5 °F 73% 30.38 in 7.0 mi Calm Calm - N/A   Clear
4:15 PM 51.3 °F - 43.3 °F 74% 30.38 in 7.0 mi Calm Calm - N/A   Clear
4:40 PM 49.5 °F - 43.0 °F 78% 30.39 in 7.0 mi Calm Calm - N/A   Clear
5:00 PM 46.9 °F - 42.4 °F 84% 30.39 in 7.0 mi Calm Calm - N/A   Clear
5:20 PM 45.9 °F - 41.9 °F 86% 30.39 in 7.0 mi Calm Calm - N/A   Clear
5:40 PM 44.4 °F - 41.7 °F 90% 30.39 in 7.0 mi Calm Calm - N/A   Clear
6:05 PM 42.3 °F - 41.4 °F 97% 30.40 in 5.0 mi Calm Calm - N/A   Clear
6:25 PM 41.4 °F - 41.4 °F 100% 30.41 in 4.0 mi Calm Calm - N/A   Clear
6:45 PM 41.4 °F - 41.0 °F 99% 30.41 in 5.0 mi Calm Calm - N/A   Clear
7:05 PM 40.5 °F - 40.3 °F 99% 30.41 in 4.0 mi Calm Calm - N/A   Clear
7:50 PM 38.7 °F - 38.7 °F 100% 30.41 in 2.0 mi Calm Calm - N/A   Clear
8:10 PM 38.8 °F - 38.8 °F 100% 30.42 in 1.5 mi Calm Calm - N/A   Unknown
8:55 PM 37.6 °F - 37.6 °F 100% 30.41 in 1.5 mi Calm Calm - N/A   Mostly Cloudy
9:15 PM 37.4 °F - 37.4 °F 100% 30.41 in 2.5 mi Calm Calm - N/A   Overcast
9:35 PM 39.9 °F - 39.9 °F 100% 30.41 in 2.5 mi Calm Calm - N/A   Overcast
9:55 PM 40.6 °F - 40.6 °F 100% 30.41 in 3.0 mi Calm Calm - N/A   Overcast
10:20 PM 40.3 °F - 40.3 °F 100% 30.40 in 3.0 mi Calm Calm - N/A   Mostly Cloudy
11:00 PM 39.0 °F - 39.0 °F 100% 30.40 in 2.5 mi Calm Calm - N/A   Mostly Cloudy
11:45 PM 38.5 °F - 38.5 °F 100% 30.41 in 2.0 mi Calm Calm - N/A   Overcast